Tracking 33446 objects as of 10-Mar-2026
HD Live streaming from Space Station
objects crossing your sky now

STARLINK-35571

Track STARLINK-35571 now!
10-day predictions
STARLINK-35571 is classified as:


NORAD ID: 66089
Int'l Code: 2025-236D
Perigee: 481.3 km
Apogee: 483.4 km
Inclination: 53.2 °
Period: 94.1 minutes
Semi major axis: 6853 km
RCS: Unknown
Launch date: October 19, 2025
Source: United States (US)
Launch site: AIR FORCE WESTERN TEST RANGE (AFWTR)
Your satellite tracking list
Your tracking list is empty




NASA's NSSDC Master Catalog

Two Line Element Set (TLE):
1 66089U 25236D   26068.80408841  .00018403  00000-0  63193-3 0  9993
2 66089  53.1593 103.2323 0001477  88.6580 271.4590 15.30200179 22960
Source of the keplerian elements: AFSPC